DELTA 1 DEB, 9726

Orbit data source: Space-Track

DELTA 1 DEB, 9726 is space debris in SSO originally from a launch on Tue, 06 Nov 1973 UTC launched from the Air Force Western Test Range (AFWTR). Debris objects in space refer to the collection of defunct objects orbiting the Earth. Examples of debris include non-operational satellites, rocket bodies, and fragments generated from explosions, collisions, or faulty payload assembly.

Loading next visibility...
Identifier
9726, 1973-086GC
Orbit
SSO
Country
Flag of USUS
Related business
Manufacturer
Unknown
Mission
Spacecraft
Bus & Motor
Unknown
Mass
Unknown
Launch date (UTC)
1973-11-06 (52 years ago)
Launch vehicle
Unknown
Launch site
Air Force Western Test Range (AFWTR)
Object type
Payload
Rocket body
Debris
Shape & HBR
Unknown shape, 0.1 m
Radar Cross Section
Small (<0.1 m²)

Expand to show TLE details & history
Last TLE update: 1 week ago

TLE from 1 week ago
0 DELTA 1 DEB
1 09726U 73086GC  25340.49522066  .00000041  00000-0  76949-3 0  9999
2 09726 102.5976 350.1897 0080064 337.4405 178.4679 12.26646749257545
Epoch: 2025-12-06T11:53Z
TLE epoch observation values (Epoch: 2025-12-06T11:53:07.065Z)
Latitude
23.47426°
Longitude
-78.06923°
Altitude
1,629.773 km
Speed
7.03 km/s
True Right ascension
11h 42m 55s
True Declination
23° 21' 45"
Sunlit
Object was in daylight at epoch
Visualization orbit readout
Latitude
Unknown
Longitude
Unknown
Altitude
Unknown
Speed
Unknown
Apparent Right ascension
Unknown
Apparent Declination
Unknown
Sunlit
N/A
Visualization observer readout
Local Sidereal Time
17:25:43
Azimuth
Unknown
Elevation
Unknown
Doppler factor
Unknown
Orbital elements
Apogee altitude
1,624.917 km
Perigee altitude
1,497.783 km
Semi-major axis
7,939.487 km
Eccentricity
0.00801
Inclination
102.5976°
RAAN
350.1897°
Arg. of periapsis
337.4405°
True anomaly
178.49219°
Mean anomaly
178.4679°
Eccentric anomaly
178.48007°
Mean motion
3.06799 °/min
Orbital period
117.34 mins
BSTAR
0.00076949
Loading maneuver chart data...
Computing Atmospheric mass density...
Loading historical data...
Loading historical data...
Loading historical data...
Loading historical data...
Loading historical data...
Loading historical data...
Loading historical data...

Documentation

Showing up to 5 results
|